"Pseudo-MPEC" for J312311

Created 2023 Nov 30 6:22:02 UT using Find_Orb

Click here for an explanation of pseudo-MPECs

 
 Astrometry: 
     J312311*KC2023 11 19L$%Astrometryl)*0)redacted;=v(O42N^nvnB$'x)Z4:.mfgr2J31
     J312311 KC2023 11 19JVB-tr3HGh(OLwKusOLY6`MxT9?KC]GPW@dclick3BeUJ;\!hereJ31
     J312311 KC2023 11 19@Wup3!)#aV!oIuvNYuojofor3#kx2mnq4%F^explanationlGgo/J31

Station data:
(J31) La Axarquia  (N36.729513 W4.225890)  Spain.  Observer J. Baez. 0.30-m
   f/3 + CCD.

Orbital elements:  J312311
   Perihelion 2023 May 23.57558 +/- 303 TT = 13:48:50 (JD 2460088.07558)
Epoch 2023 Nov 19.0 TT = JDT 2460267.5   Earth MOID: 0.0141   Ju: 0.1654
M  15.07457410 +/- 70               Ma: 0.0008   Sa: 0.3766      AutoNEOCP
n   0.08401629 +/- 0.157            Peri.  109.31496 +/- 58
a   5.16289994 +/- 6.43             Node   202.65412 +/- 70
e   0.8328352 +/- 0.262             Incl.    1.94753 +/- 70
P  11.73                   H 16.30  G  0.15   U 11.5  SR
q 0.86305499 +/- 1.09    Q 9.46274490 +/- 28              (J2000 ecliptic)
From 3 observations 2023 Nov. 19 (26.8 min); mean residual 0".22
Residuals in arcseconds: 
231119 J31  .00   .22-    231119 J31  .00   .43+    231119 J31  .00   .22-    

Ephemerides (geocentric):
Date (UTC) HH   RA             Dec           delta  r     elong  mag " sig PA
---- --------  ------------   ------------  ------ ------ -----  --- --------
2023 11 30 06  04 53 51.857   +20 14 29.07  1.7282 2.7092 172.6 19.9  32d 104
2023 11 30 07  04 53 48.425   +20 14 23.06  1.7285 2.7096 172.6 19.9  32d 104
2023 11 30 08  04 53 44.995   +20 14 17.06  1.7289 2.7100 172.7 19.9  32d 104
2023 11 30 09  04 53 41.565   +20 14 11.06  1.7292 2.7105 172.7 19.9  32d 104
2023 11 30 10  04 53 38.136   +20 14 05.06  1.7296 2.7109 172.8 19.9  32d 104
2023 11 30 11  04 53 34.709   +20 13 59.06  1.7299 2.7113 172.8 19.9  33d 104
2023 11 30 12  04 53 31.282   +20 13 53.05  1.7303 2.7117 172.9 19.9  33d 104
2023 11 30 13  04 53 27.856   +20 13 47.05  1.7306 2.7121 172.9 19.9  33d 104
2023 11 30 14  04 53 24.430   +20 13 41.05  1.7310 2.7125 173.0 19.9  33d 104
2023 11 30 15  04 53 21.006   +20 13 35.05  1.7313 2.7129 173.0 19.9  33d 104
2023 11 30 16  04 53 17.583   +20 13 29.04  1.7317 2.7133 173.1 19.9  33d 104
2023 11 30 17  04 53 14.161   +20 13 23.04  1.7320 2.7137 173.1 19.9  33d 104
2023 11 30 18  04 53 10.739   +20 13 17.04  1.7324 2.7141 173.2 19.9  33d 104
2023 11 30 19  04 53 07.319   +20 13 11.03  1.7327 2.7146 173.2 19.9  33d 104
2023 11 30 20  04 53 03.899   +20 13 05.03  1.7331 2.7150 173.3 19.9  33d 104
2023 11 30 21  04 53 00.481   +20 12 59.02  1.7334 2.7154 173.3 19.9  33d 104
2023 11 30 22  04 52 57.063   +20 12 53.02  1.7338 2.7158 173.4 19.9  33d 104
2023 11 30 23  04 52 53.647   +20 12 47.01  1.7341 2.7162 173.5 19.9  33d 104
2023 12 01 00  04 52 50.231   +20 12 41.01  1.7345 2.7166 173.5 19.9  33d 104
2023 12 01 01  04 52 46.817   +20 12 35.01  1.7348 2.7170 173.6 19.9  33d 104
2023 12 01 02  04 52 43.403   +20 12 29.00  1.7352 2.7174 173.6 19.9  33d 104
2023 12 01 03  04 52 39.990   +20 12 23.00  1.7355 2.7178 173.7 19.9  33d 104
2023 12 01 04  04 52 36.579   +20 12 16.99  1.7359 2.7183 173.7 19.9  33d 104
2023 12 01 05  04 52 33.168   +20 12 10.99  1.7362 2.7187 173.8 19.9  33d 104
2023 12 01 06  04 52 29.759   +20 12 04.98  1.7366 2.7191 173.8 19.9  33d 104
2023 12 01 07  04 52 26.350   +20 11 58.98  1.7370 2.7195 173.9 19.9  33d 104
2023 12 01 08  04 52 22.942   +20 11 52.97  1.7373 2.7199 173.9 19.9  33d 104
2023 12 01 09  04 52 19.536   +20 11 46.97  1.7377 2.7203 174.0 19.9  33d 104
2023 12 01 10  04 52 16.130   +20 11 40.96  1.7380 2.7207 174.0 19.9  33d 104
2023 12 01 11  04 52 12.726   +20 11 34.96  1.7384 2.7211 174.1 19.9  33d 104
2023 12 01 12  04 52 09.323   +20 11 28.95  1.7387 2.7215 174.1 19.9  33d 104
2023 12 01 13  04 52 05.920   +20 11 22.95  1.7391 2.7219 174.2 19.9  33d 104
2023 12 01 14  04 52 02.519   +20 11 16.94  1.7395 2.7224 174.2 19.9  33d 104
2023 12 01 15  04 51 59.119   +20 11 10.94  1.7398 2.7228 174.3 19.9  33d 104
2023 12 01 16  04 51 55.719   +20 11 04.93  1.7402 2.7232 174.3 19.9  33d 104
2023 12 01 17  04 51 52.321   +20 10 58.93  1.7405 2.7236 174.4 19.9  33d 104
2023 12 01 18  04 51 48.924   +20 10 52.93  1.7409 2.7240 174.4 19.9  33d 104
2023 12 01 19  04 51 45.528   +20 10 46.92  1.7413 2.7244 174.5 19.9  33d 104
2023 12 01 20  04 51 42.133   +20 10 40.92  1.7416 2.7248 174.5 19.9  33d 104
2023 12 01 21  04 51 38.740   +20 10 34.91  1.7420 2.7252 174.6 19.9  33d 104
2023 12 01 22  04 51 35.347   +20 10 28.91  1.7424 2.7256 174.6 19.9  33d 104
2023 12 01 23  04 51 31.955   +20 10 22.91  1.7427 2.7260 174.7 19.9  33d 104
2023 12 02 00  04 51 28.565   +20 10 16.90  1.7431 2.7265 174.7 19.9  33d 104
2023 12 02 01  04 51 25.175   +20 10 10.90  1.7435 2.7269 174.8 19.9  33d 104
2023 12 02 02  04 51 21.787   +20 10 04.90  1.7438 2.7273 174.8 19.9  33d 104
2023 12 02 03  04 51 18.400   +20 09 58.90  1.7442 2.7277 174.9 19.9  33d 104
2023 12 02 04  04 51 15.014   +20 09 52.89  1.7446 2.7281 174.9 19.9  33d 104
2023 12 02 05  04 51 11.629   +20 09 46.89  1.7449 2.7285 175.0 19.9  33d 104